Regional Weather Roundup
Issued by NWS

Home | Current Version | Previous Version | Text Only | Print | Product List | Glossary On
Versions: 1 2 3 4 5 6 7 8 9 10 11 12 13 14 15 16 17 18 19 20 21 22 23 24 25 26 27 28 29 30 31 32 33 34 35 36 37 38 39 40 41 42 43 44 45 46 47 48 49 50
000
ASUS43 KMKX 070900
RWRWI

WISCONSIN REGIONAL WEATHER ROUNDUP
NATIONAL WEATHER SERVICE MILWAUKEE/SULLIVAN WI
400 AM CDT TUE JUL 07 2015

NOTE: "FAIR" INDICATES FEW OR NO CLOUDS BELOW 12,000 FEET WITH NO
SIGNIFICANT WEATHER AND/OR OBSTRUCTIONS TO VISIBILITY.

WIZ001-002-006>008-014>016-023>028-071000-
NORTHWEST WISCONSIN

CITY           SKY/WX    TMP DP  RH WIND       PRES   REMARKS
SUPERIOR ARPT  CLOUDY    56  43  60 N9        30.08R
ASHLAND        CLOUDY    52  47  83 NW5       30.05S
HAYWARD        CLOUDY    50  46  86 CALM      30.07R
SIREN          MOCLDY    52  46  80 NW5       30.08R
CUMBERLAND     CLEAR     48  45  87 N6        30.07R
RICE LAKE      CLEAR     51  46  81 NW5       30.07R
CHETEK         CLEAR     53  47  81 NW3       30.05S
LADYSMITH      CLEAR     51  46  84 N7        30.05S
EAU CLAIRE     CLEAR     53  47  79 N5        30.03R
MENOMONIE      CLEAR     54  49  81 NW6       30.05S
NEW RICHMOND   MOCLDY    51  50  95 N6        30.07S
OSCEOLA        CLEAR     53  49  89 NW5       30.11S
$$

WIZ003>005-009-010-017-018-071000-
NORTH CENTRAL WISCONSIN

CITY           SKY/WX    TMP DP  RH WIND       PRES   REMARKS
MANITOWISH WTR PTCLDY    48  48  99 NW5       30.02R
ARBOR VITAE    MOCLDY    52  48  87 N6        30.01R
WOODRUFF       MOCLDY    52  48  87 N6        30.01R
RHINELANDER    CLEAR     50  44  80 N6        30.00S
EAGLE RIVER    CLOUDY    52  46  82 N6        30.00R
LAND O LAKES   CLOUDY    51  46  83 N6        30.01S
PHILLIPS       CLEAR     49  47  92 NW3       30.02R
TOMAHAWK       CLEAR     49  46  90 N5        30.01R
MEDFORD        CLEAR     51  47  87 N8        30.01S
MERRILL        PTCLDY    52  51  96 N7        30.00R
$$

WIZ029-030-035-036-043>047-071000-
CENTRAL WISCONSIN

CITY           SKY/WX    TMP DP  RH WIND       PRES   REMARKS
WAUSAU         PTCLDY    55  51  86 NW9       29.97R
MOSINEE        CLOUDY    54  54 100 NW9       29.99R FOG
MARSHFIELD     CLEAR     55  49  80 N13       29.99S
STEVENS POINT  CLEAR     53  52  95 NW5       29.97S FOG
WAUPACA        MOCLDY    61  57  86 NW6       29.95R FOG
WAUTOMA        NOT AVBL
WISC RAPIDS    CLEAR     56  52  86 N8        29.99R FOG
CAMP DOUGLAS   NOT AVBL
$$

WIZ011>013-019>022-031-037>040-048>050-071000-
NORTHEAST WISCONSIN

CITY           SKY/WX    TMP DP  RH WIND       PRES   REMARKS
ANTIGO         CLOUDY    55  54  94 N6        29.97R FOG
SHAWANO        CLOUDY    61  55  78 N8        29.94S
OCONTO         CLOUDY    58  54  87 N8        29.93R
STURGEON BAY   CLOUDY    57  46  67 N16G26    29.94R
GREEN BAY      CLOUDY    62  56  80 N9        29.93R HAZE
MANITOWOC      LGT RAIN  59  57  94 MISG      29.92R FOG
APPLETON       CLOUDY    61  54  77 N8        29.94R HAZE
CLINTONVILLE   CLOUDY    61  52  72 N9G18     29.94S HAZE
OSHKOSH        CLOUDY    62  56  80 N9        29.92F HAZE
$$

WIZ032>034-041-042-053>061-071000-
SOUTHWEST WISCONSIN

CITY           SKY/WX    TMP DP  RH WIND       PRES   REMARKS
LA CROSSE      CLOUDY    61  56  83 N9        29.99R HAZE
SPARTA         CLOUDY    56  55  94 CALM      29.99S FOG
VIROQUA        CLEAR     56  56 100 N7        29.99R
BOSCOBEL       CLEAR     59  55  87 N6        29.97R FOG
PRAIRIE DU CHI CLEAR     59  55  87 NW3       29.97R FOG
PLATTEVILLE    CLEAR     59  57  95 N7        29.94S
$$

WIZ056-057-062-063-064-067-068-071000-
SOUTH CENTRAL WISCONSIN

CITY           SKY/WX    TMP DP  RH WIND       PRES   REMARKS
REEDSBURG      CLOUDY    58  56  92 N10       29.95S FOG
BARABOO/DELLS  CLOUDY    58  55  92 N7        29.95R FOG
LONE ROCK      NOT AVBL
MINERAL POINT  PTCLDY    59  55  88 N9        29.94S FOG
MADISON        CLOUDY    62  57  83 N12       29.92F HAZE
MIDDLETON      CLOUDY    63  59  87 N7        29.94R
WATERTOWN      CLOUDY    59  59 100 N7G20     29.91R FOG
MONROE         CLOUDY    61  57  88 N12G20    29.91S FOG
JANESVILLE     CLOUDY    61  59  94 N12G17    29.90R FOG
$$

WIZ051-052-058>065-066-070>072-071000-
SOUTHEAST WISCONSIN

CITY           SKY/WX    TMP DP  RH WIND       PRES   REMARKS
MILWAUKEE      LGT RAIN  59  57  93 N10       29.90R FOG
WAUKESHA       DRIZZLE   57  55  94 N8G16     29.91R
MILWAUKEE/TIMM CLOUDY    59  55  88 N14G20    29.90R FOG
RACINE         RAIN      59  56  89 N18G28    29.91R FOG
BURLINGTON     RAIN      60  59  96 N9G18     29.89R
KENOSHA        LGT RAIN  59  57  93 N13G26    29.88F FOG
FOND DU LAC    CLOUDY    61  58  90 N10       29.92S FOG
SHEBOYGAN      LGT RAIN  59  57  93 N13       29.91R FOG
WEST BEND      DRIZZLE   59  55  88 N8        29.90S
JUNEAU         CLOUDY    59  57  94 N8        29.93S FOG
$$

LSZ147-162-071000-
LAKE SUPERIOR

STATION/POSITION TIME  TEMP    WIND        PRES    WAVE
                       AIR SEA DIR/SP/G            HT/PER
                 (UTC) (F)     (DEG/KT/KT) (MB)    (FT/S)
W MID LAKE BUOY  0750   46 39  320/ 10/ 12 1016.3R   1/ 3
DEVILS ISLAND    0800   56     330/ 14/ 17 1017.3R
PORT WING        0800   58     330/ 11/ 14 1017.9R
SAXON HARBOR     0840   59     340/ 13/ 17 1016.9R
$$

LMZ867-665-643>646-071000-
LAKE MICHIGAN

STATION/POSITION TIME  TEMP    WIND        PRES    WAVE
                       AIR SEA DIR/SP/G            HT/PER
                 (UTC) (F)     (DEG/KT/KT) (MB)    (FT/S)
CHAMBERS ISLAND  0800   60     340/ 19/ 24 1012.9R
N MID LAKE BUOY  0750   54 54  320/ 17/ 19 1011.4R   3/ 4
NORTHPORT PIER   0800   59     340/ 22/ 25 1012.5R
SISTER BAY       0814   58     360/ 19/ 25   N/A
ALGOMA LAKESHORE 0741          360/  9/ 13   N/A
KEWAUNEE LAKESHO 0800   59     360/  5/  9 1012.1R
SHEBOYGAN LAKESH 0800   56     360/  9/  9 1012.8R
PORT WASHINGTON  0840   60     350/  6/ 10 1012.5R
ATWATER BUOY     0800   58 57   10/ 17/ 23 1012.7R
MILWAUKEE LAKESH 0800   59     360/ 18/ 22   N/A
KENOSHA   LAKESH 0800   60      10/ 21/ 26 1011.2R
$$

TC  - TEMPERATURE IN CELSIUS
VSB - VISIBILITY IN STATUTE MILES
WCI - WIND CHILL INDEX
HX  - HEAT INDEX




USA.gov is the U.S. government's official web portal to all federal, state and local government web resources and services.